Regional Weather Roundup
Issued by NWS

Home | Current Version | Previous Version | Graphics & Text | Print | Product List | Glossary Off
Versions: 1 2 3 4 5 6 7 8 9 10 11 12 13 14 15 16 17 18 19 20 21 22 23 24 25 26 27 28 29 30 31 32 33 34 35 36 37 38 39 40 41 42 43 44 45 46 47 48 49 50

000
ASUS43 KLSX 021207
RWRMO

WEATHER SUMMARY FOR MISSOURI
NATIONAL WEATHER SERVICE SPRINGFIELD MO
700 AM CDT SUN AUG 02 2015

NOTE: "FAIR" INDICATES FEW OR NO CLOUDS BELOW 12,000 FEET WITH NO
       SIGNIFICANT WEATHER AND/OR OBSTRUCTIONS TO VISIBILITY.
       CURRENT SKY AND/OR WEATHER CONDITIONS ARE NOT AVAILABLE FOR
       CHILLICOTHE AND FARMINGTON.

MOZ001>031-035>038-043-044-053-054-021300-
...NORTHERN AND WESTERN MISSOURI...

CITY           SKY/WX    TMP DP  RH WIND       PRES   REMARKS
KANSAS CTY INT PTCLDY    72  67  84 SW7       29.92S
6HR MIN TEMP:  68; 6HR MAX TEMP:  72;

KANSAS C DTWN  CLEAR     75  67  76 SW5       29.91S
6HR MIN TEMP:  74; 6HR MAX TEMP:  78;

LEE`S SUMMIT   PTCLDY    72  65  78 SW6       29.94R
6HR MIN TEMP:  71; 6HR MAX TEMP:  74;

ST JOSEPH        N/A     71  69  93 SW5       29.90S
6HR MIN TEMP:  70; 6HR MAX TEMP:  72;

CHILLICOTHE      N/A     68  65  90 CALM      29.93R
6HR MIN TEMP:  67; 6HR MAX TEMP:  71;

KIRKSVILLE     PTCLDY    69  61  75 SW6       29.94R
6HR MIN TEMP:  66; 6HR MAX TEMP:  69;


$$
MOZ066>068-077>081-088>096-101>105-021300-
...SOUTHWEST MISSOURI...

CITY           SKY/WX    TMP DP  RH WIND       PRES   REMARKS
SPRINGFIELD    CLEAR     70  66  87 S7        29.99R
6HR MIN TEMP:  69; 6HR MAX TEMP:  73;

JOPLIN         CLEAR     70  65  84 S6        29.98R
6HR MIN TEMP:  69; 6HR MAX TEMP:  74;


$$
MOZ032>034-039>042-045>050-055>058-069>072-021300-
...CENTRAL MISSOURI...

CITY           SKY/WX    TMP DP  RH WIND       PRES   REMARKS
COLUMBIA       PTCLDY    70  69  97 S5        29.97R
6HR MIN TEMP:  67; 6HR MAX TEMP:  70;

JEFFERSON CITY CLEAR     69  67  93 E3        29.96R
6HR MIN TEMP:  67; 6HR MAX TEMP:  70;

ROLLA          CLEAR     70  66  87 S9        29.98R
6HR MIN TEMP:  67; 6HR MAX TEMP:  72;

SEDALIA        PTCLDY    70  66  87 SW7       29.96R
6HR MIN TEMP:  67; 6HR MAX TEMP:  70;

WHITEMAN AFB   PTCLDY    68  66  95 S6        29.94R
WARRENSBURG    PTCLDY    66  64  94 S3        29.94R
OSAGE BEACH    CLEAR     68  64  88 CALM      29.98R

$$
MOZ051-052-059>065-021300-
...EAST CENTRAL MISSOURI...

CITY           SKY/WX    TMP DP  RH WIND       PRES   REMARKS
ST LOUIS INTL  MOCLDY    77  68  73 VRB3      29.96R
6HR MIN TEMP:  76; 6HR MAX TEMP:  81;

SPIRIT OF STL  CLEAR     72  69  90 W3        29.95R
6HR MIN TEMP:  70; 6HR MAX TEMP:  75;

ST CHARLES     MOCLDY    73  71  93 CALM      29.94R
6HR MIN TEMP:  70; 6HR MAX TEMP:  75;


$$
MOZ072>076-082>087-097>100-106>115-021300-
...SOUTH CENTRAL AND SOUTHEAST MISSOURI...

CITY           SKY/WX    TMP DP  RH WIND       PRES   REMARKS
CAPE GIRARDEAU PTCLDY    70  69  97 CALM      29.97R
6HR MIN TEMP:  68; 6HR MAX TEMP:  76;

FARMINGTON     PTCLDY    72  68  88 CALM      30.02S
6HR MIN TEMP:  70; 6HR MAX TEMP:  72;

POPLAR BLUFF   PTCLDY    73  71  93 CALM      29.96R FOG
6HR MIN TEMP:  71; 6HR MAX TEMP:  76;

WEST PLAINS    CLEAR     68  64  87 CALM      30.02R
6HR MIN TEMP:  66; 6HR MAX TEMP:  70;


$$



USA.gov is the U.S. government's official web portal to all federal, state and local government web resources and services.